Terminal Aerodrome Forecast
Issued by NWS

Home | Current Version | Previous Version | Text Only | Print | Product List | Glossary Off
Versions: 1 2 3 4 5 6 7 8 9 10 11 12 13 14 15 16 17

000
FTUS43 KABR 030500
TAFMBG
TAF
KMBG 030538Z 0306/0406 33010KT P6SM OVC080
     FM030800 34020G30KT 3SM -SN OVC030
     FM031400 33026G35KT P6SM OVC025
     FM031800 33015KT P6SM BKN040=

USA.gov is the U.S. government's official web portal to all federal, state and local government web resources and services.